Regional Weather Roundup
Issued by NWS Cleveland, OH

Home | Current Version | Previous Version | Graphics & Text | Print | Product List | Glossary Off
Versions: 1 2 3 4 5 6 7 8 9 10 11 12 13 14 15 16 17 18 19 20 21 22 23 24 25 26 27 28 29 30 31 32 33 34 35 36 37 38 39 40 41 42 43 44 45 46 47 48 49 50

000
ASUS41 KCLE 060310
RWRCLE
OHIO REGIONAL WEATHER ROUNDUP
NATIONAL WEATHER SERVICE CLEVELAND, OH
1000 PM EST THU MAR 05 2015

NOTE: "FAIR" INDICATES FEW OR NO CLOUDS BELOW 12,000 FEET WITH NO
SIGNIFICANT WEATHER AND/OR OBSTRUCTIONS TO VISIBILITY.

OHZ001>008-015>018-024>027-034-035-043-044-060400-
   NORTHWEST OHIO

CITY           SKY/WX    TMP DP  RH WIND       PRES   REMARKS
DEFIANCE       CLEAR      6   0  76 SW3       30.53R
FINDLAY        CLEAR      8   1  73 S5        30.51R WCI   0
TOLEDO EXPRESS CLEAR      6  -1  73 CALM      30.51R
TOLEDO EXEC    CLEAR     10  -1  61 CALM      30.52S
LIMA           CLEAR     11   3  70 S3        30.50R
$$

OHZ009>014-019>023-028>033-038-089-060400-
   NORTHEAST OHIO

CITY           SKY/WX    TMP DP  RH WIND       PRES   REMARKS
CLE-HOPKINS    CLEAR     10   0  63 S3        30.53R
CLE-LAKEFRONT  CLEAR     13   1  59 CALM      30.51S
CUY CO. ARPT   CLEAR      5   1  85 CALM      30.50R
LORAIN-ELYRIA  CLEAR      7   0  73 W6        30.51R WCI  -3
ASHTABULA      PTCLDY     0  -7  72 CALM      30.50R
AKRON-CANTON   CLEAR      8  -3  61 CALM      30.47R
WOOSTER        CLEAR      0  -5  79 CALM      30.48R
MANSFIELD      CLEAR      8   3  80 SW3       30.47R
YOUNGSTOWN     CLEAR      2  -4  76 CALM      30.46S
$$

OHZ042-051>053-060>062-070>072-077>081-060400-
  SOUTHWEST OHIO

CITY           SKY/WX    TMP DP  RH WIND       PRES   REMARKS
CINC-COVINGTON CLEAR     14   3  61 N6        30.52R WCI   5
CINC-LUNKEN    CLEAR     14   9  80 CALM      30.57S
HAMILTON       CLEAR      9   4  80 CALM      30.56R
DAYTON         CLEAR     12   4  70 W3        30.52R
WRIGHT-PAT AFB CLEAR     11   6  81 CALM      30.53R
DAYTON GENERAL CLEAR     13   3  64 CALM      30.51R
WILMINGTON     PTCLDY     7   0  73 CALM      30.51R
$$

OHZ036-037-039>041-045>050-054>059-063>069-073>076-082>088-060400-
  CENTRAL AND SOUTHEAST OHIO

CITY           SKY/WX    TMP DP  RH WIND       PRES   REMARKS
COLUMBUS       CLEAR     14   3  61 CALM      30.52R
OSU AIRPORT    CLEAR     12   3  67 CALM      30.52R
BOLTON FIELD   CLEAR    N/A N/A N/A CALM      30.53R
RICKENBACK AFB CLEAR     13   2  62 CALM      30.53R
NEWARK         CLEAR      6   1  80 CALM      30.51R
MARION         CLEAR      7  -1  70 CALM      30.51R
LANCASTER      CLEAR      2  -1  88 CALM      30.53R
ZANESVILLE     CLEAR     10   2  69 CALM      30.51R
NEW PHILLY     CLEAR      9   1  70 CALM      30.51R
$$


USA.gov is the U.S. government's official web portal to all federal, state and local government web resources and services.